Weather in Posyolok Kirpichnogo Zavoda

Russia / Moscow Oblast     54°51′24″N   37°25′38″E
temp.,
°C
wind,
m/s
gust,
m/s
humid.,
%
clouds,
%
prec.,
mm/h
press.,
hPa
HPBL,
m
13 august, sat
sat1300:00+16e226998 0.0 102311
03:00+15ene1170100 0.0 102411
06:00+15ene226975 0.0 102323
09:00+20ene2357100 0.0 1023257
12:00+24ene3343100 0.0 1022881
15:00+26e223892 0.0 10211191
18:00+25ese12537 0.0 1020231
21:00+18ne33697 0.0 102037
14 august, sun
sun1400:00+17ene33625 0.0 102133
03:00+15ene236532 0.0 102028
06:00+16e33690 0.0 102059
09:00+22e235411 0.0 1020326
12:00+26ese334320 0.0 1020899
15:00+26ese43438 0.0 10191174
18:00+25ese245465 0.0 1019262
21:00+20ene225856 0.0 101917
15 august, mon
mon1500:00+18e33613 0.0 101928
03:00+16e33674 0.0 101940
06:00+16ene347674 0.0 102072
09:00+22e476183 0.0 1020369
12:00+27ese674869 0.0 10201345
15:00+28ese57428 0.0 10192138
18:00+26e475253 0.0 1019344
21:00+20e412615 0.0 1020203
16 august, tue
tue1600:00+19e414583 0.0 1020272
03:00+17ese411665 0.0 1021193
06:00+16ese4106879 0.0 1021177
09:00+22ese695295 0.0 1022404
12:00+26ese684316 0.0 10221234
15:00+27ese573972 0.0 10211887
18:00+26e485016 0.0 1020308
21:00+20e48599 0.0 1020127
17 august, wed
wed1700:00+19e41459100 0.0 1021272
03:00+19e51357100 0.0 1020264
06:00+17e51263100 0.0 1020243
09:00+22ese5953100 0.0 1020396
12:00+26ese694296 0.0 1019814
15:00+28ese573794 0.0 10191467
18:00+26ene374986 0.0 1019221
21:00+20ene355497 0.0 101966